Weather History for Manning, SC

Change the Weather History Date:

Monday, January 21, 2013

  Actual Average (KCKI) Record (KCKI)
Temperature  
Mean Temperature 50 °F -  
Max Temperature 68 °F 54 °F 68 °F (2012)
Min Temperature 32 °F 29 °F 28 °F (2011)
Degree Days  
Heating Degree Days 15    
Moisture  
Dew Point 22 °F    
Average Humidity 48    
Maximum Humidity 100    
Minimum Humidity 5    
Precipitation  
Precipitation 0.00 in - - ()
Sea Level Pressure  
Sea Level Pressure 30.03 in    
Wind  
Wind Speed 2 mph (WSW)    
Max Wind Speed 12 mph    
Max Gust Speed 18 mph    
Visibility 8 miles    
Events      
Averages and records for this station are not official NWS values.
T = Trace of Precipitation, MM = Missing Value Source: NWS Daily Summary

Daily Weather History Graph

Daily Weather History Graph

Search for Another Location

Airport:

Trip Planner

Search our weather history database for the weather conditions in past years. The results will help you decide how hot, cold, wet, or windy it might be!

Date:

Astronomy

Jan. 21, 2013 Rise Set
Actual Time 7:23 AM EST 5:41 PM EST
Civil Twilight 6:56 AM EST 6:08 PM EST
Nautical Twilight 6:26 AM EST 6:38 PM EST
Astronomical Twilight 5:56 AM EST 7:08 PM EST
Moon 1:21 PM EST 2:49 AM EST
Length of Visible Light 11h 11m
Length of Day
10h 18m
Waxing Gibbous, 75% of the Moon is Illuminated
Jan 21
Waxing Gibbous
Jan 26
Full
Feb 3
Last Quarter
Feb 10
New
Feb 17
First Quarter

Hourly Weather History & Observations

Time (EST) Temp. Windchill Dew Point Humidity Pressure Visibility Wind Dir Wind Speed Gust Speed Precip Events Conditions
12:15 AM 37.4 °F - 32.0 °F 81% 30.09 in 10.0 mi Calm Calm - N/A   Clear
12:35 AM 37.4 °F - 33.8 °F 87% 30.08 in 10.0 mi Calm Calm - N/A   Clear
12:55 AM 37.4 °F - 32.0 °F 81% 30.08 in 10.0 mi Calm Calm - N/A   Clear
1:15 AM 37.4 °F - 32.0 °F 81% 30.08 in 10.0 mi Calm Calm - N/A   Clear
1:35 AM 37.4 °F - 30.2 °F 75% 30.07 in 10.0 mi Calm Calm - N/A   Clear
1:55 AM 37.4 °F - 32.0 °F 81% 30.08 in 10.0 mi Calm Calm - N/A   Clear
2:15 AM 37.4 °F - 32.0 °F 81% 30.07 in 10.0 mi Calm Calm - N/A   Clear
2:35 AM 37.4 °F 34.9 °F 23.0 °F 56% 30.08 in 10.0 mi North 3.5 mph - N/A   Clear
2:55 AM 37.4 °F - 32.0 °F 81% 30.08 in 7.0 mi Calm Calm - N/A   Clear
3:15 AM 37.4 °F - 33.8 °F 87% 30.07 in 7.0 mi Calm Calm - N/A   Clear
3:35 AM 35.6 °F - 28.4 °F 75% 30.07 in 7.0 mi Calm Calm - N/A   Clear
3:55 AM 35.6 °F - 30.2 °F 81% 30.06 in 7.0 mi Calm Calm - N/A   Clear
4:15 AM 35.6 °F - 32.0 °F 87% 30.06 in 7.0 mi Calm Calm - N/A   Clear
4:35 AM 35.6 °F - 33.8 °F 93% 30.06 in 7.0 mi Calm Calm - N/A   Clear
4:55 AM 33.8 °F - 33.8 °F 100% 30.05 in 7.0 mi Calm Calm - N/A   Clear
5:15 AM 33.8 °F - 33.8 °F 100% 30.05 in 5.0 mi Calm Calm - N/A   Clear
5:35 AM 33.8 °F - 33.8 °F 100% 30.06 in 7.0 mi Calm Calm - N/A   Clear
5:55 AM 33.8 °F - 33.8 °F 100% 30.05 in 7.0 mi Calm Calm - N/A   Clear
6:15 AM 33.8 °F - 32.0 °F 93% 30.05 in 7.0 mi Calm Calm - N/A   Clear
6:55 AM 32.0 °F - 32.0 °F 100% 30.06 in 5.0 mi Calm Calm - N/A   Clear
7:15 AM 32.0 °F - 32.0 °F 100% 30.06 in 5.0 mi Calm Calm - N/A   Clear
7:35 AM 32.0 °F - 32.0 °F 100% 30.06 in 5.0 mi Calm Calm - N/A   Clear
7:55 AM 33.8 °F - 32.0 °F 93% 30.06 in 5.0 mi Calm Calm - N/A   Clear
8:15 AM 33.8 °F - 32.0 °F 93% 30.07 in 5.0 mi Calm Calm - N/A   Clear
8:35 AM 35.6 °F - 24.8 °F 65% 30.08 in 5.0 mi Calm Calm - N/A   Clear
8:55 AM 37.4 °F - 30.2 °F 75% 30.08 in 7.0 mi Calm Calm - N/A   Clear
9:15 AM 44.6 °F - 33.8 °F 66% 30.08 in 7.0 mi Calm Calm - N/A   Clear
9:35 AM 48.2 °F - 32.0 °F 54% 30.09 in 10.0 mi Calm Calm - N/A   Clear
9:55 AM 51.8 °F - 35.6 °F 54% 30.09 in 10.0 mi Calm Calm - N/A   Clear
10:15 AM 53.6 °F - 35.6 °F 51% 30.09 in 10.0 mi Calm Calm - N/A   Clear
10:35 AM 55.4 °F - 42.8 °F 63% 30.09 in 10.0 mi SSW 3.5 mph - N/A   Clear
10:55 AM 59.0 °F - 39.2 °F 48% 30.08 in 10.0 mi South 3.5 mph - N/A   Clear
11:15 AM 60.8 °F - 26.6 °F 27% 30.07 in 7.0 mi SSW 3.5 mph - N/A   Clear
11:35 AM 60.8 °F - 28.4 °F 29% 30.06 in 5.0 mi SSW 4.6 mph - N/A   Clear
11:55 AM 62.6 °F - 28.4 °F 27% 30.05 in 7.0 mi SSW 5.8 mph - N/A   Clear
12:15 PM 62.6 °F - 32.0 °F 32% 30.04 in 10.0 mi South 3.5 mph - N/A   Clear
12:35 PM 62.6 °F - 30.2 °F 30% 30.03 in 10.0 mi SW 6.9 mph - N/A   Clear
12:55 PM 64.4 °F - 24.8 °F 22% 30.01 in 10.0 mi SW 8.1 mph - N/A   Clear
1:15 PM 64.4 °F - 32.0 °F 30% 30.00 in 7.0 mi SW 5.8 mph - N/A   Clear
1:35 PM 64.4 °F - 32.0 °F 30% 29.99 in 7.0 mi WSW 8.1 mph - N/A   Clear
1:55 PM 66.2 °F - 28.4 °F 24% 29.98 in 7.0 mi WSW 10.4 mph 17.3 mph N/A   Clear
2:15 PM 66.2 °F - 30.2 °F 26% 29.97 in 7.0 mi SW 11.5 mph 16.1 mph N/A   Clear
2:35 PM 66.2 °F - 30.2 °F 26% 29.97 in 7.0 mi SW 8.1 mph - N/A   Clear
2:55 PM 66.2 °F - 30.2 °F 26% 29.96 in 7.0 mi WSW 4.6 mph - N/A   Clear
3:15 PM 68.0 °F - 30.2 °F 24% 29.96 in 7.0 mi West 8.1 mph - N/A   Clear
3:35 PM 68.0 °F - -7.6 °F 5% 29.96 in 5.0 mi WSW 9.2 mph - N/A   Clear
3:55 PM 68.0 °F - -7.6 °F 5% 29.96 in 7.0 mi West 9.2 mph 18.4 mph N/A   Clear
4:15 PM 68.0 °F - -7.6 °F 5% 29.97 in 7.0 mi WSW 11.5 mph 18.4 mph N/A   Clear
4:35 PM 66.2 °F - -7.6 °F 5% 29.97 in 5.0 mi SW 10.4 mph - N/A   Clear
4:55 PM 64.4 °F - -7.6 °F 5% 29.96 in 5.0 mi SW 8.1 mph - N/A   Clear
5:15 PM 64.4 °F - -7.6 °F 5% 29.97 in 4.0 mi West 4.6 mph - N/A   Clear
5:55 PM 62.6 °F - -9.4 °F 5% 29.99 in 7.0 mi West 3.5 mph - N/A   Clear
6:15 PM 60.8 °F - -9.4 °F 6% 29.99 in 10.0 mi Calm Calm - N/A   Clear
6:35 PM 60.8 °F - -9.4 °F 6% 29.99 in 7.0 mi West 3.5 mph - N/A   Clear
6:55 PM 60.8 °F - -9.4 °F 6% 30.00 in 7.0 mi Calm Calm - N/A   Clear
7:15 PM 59.0 °F - -11.2 °F 5% 30.00 in 7.0 mi Calm Calm - N/A   Clear
7:35 PM 59.0 °F - -11.2 °F 5% 30.00 in 10.0 mi WSW 3.5 mph - N/A   Clear
7:55 PM 59.0 °F - 5.0 °F 12% 30.00 in 10.0 mi WSW 4.6 mph - N/A   Clear
8:15 PM 59.0 °F - 6.8 °F 13% 30.00 in 10.0 mi West 4.6 mph - N/A   Clear
8:35 PM 57.2 °F - 14.0 °F 18% 30.01 in 10.0 mi West 3.5 mph - N/A   Clear
8:55 PM 57.2 °F - 12.2 °F 17% 30.01 in 10.0 mi West 3.5 mph - N/A   Clear
9:15 PM 57.2 °F - -2.2 °F 9% 30.02 in 10.0 mi West 6.9 mph - N/A   Clear
9:35 PM 57.2 °F - 19.4 °F 23% 30.02 in 10.0 mi West 6.9 mph - N/A   Clear
9:55 PM 55.4 °F - 26.6 °F 33% 30.02 in 10.0 mi West 5.8 mph - N/A   Clear
10:15 PM 55.4 °F - 32.0 °F 41% 30.03 in 10.0 mi West 5.8 mph - N/A   Clear
10:35 PM 55.4 °F - -4.0 °F 9% 30.04 in 10.0 mi West 5.8 mph - N/A   Clear
10:55 PM 55.4 °F - 30.2 °F 38% 30.04 in 10.0 mi WNW 6.9 mph - N/A   Clear
11:15 PM 53.6 °F - 32.0 °F 44% 30.04 in 10.0 mi WNW 5.8 mph - N/A   Clear
11:35 PM 53.6 °F - 30.2 °F 41% 30.04 in 10.0 mi WNW 5.8 mph - N/A   Clear
11:55 PM 53.6 °F - 30.2 °F 41% 30.04 in 7.0 mi WNW 3.5 mph - N/A   Clear